User: anonymous   Login
Location: Brno
(49.2000°N, 16.6330°E)
Time: 11:12:06
(UTC+02:00)
Language:

Cosmos 1459 Rocket - Orbit

View from above orbital plane
View from above orbital plane
View from above satellite
View from above satellite

Ground track
Ground track

The orbit data is extracted from the following two-line orbital elements,

1 14059U 83042B   16204.41356366  .00000030  00000-0  14198-4 0  9993
2 14059  82.9739 306.6888 0043982 112.4954 316.0274 13.78558732670320
Epoch (UTC): 22 July 2016 09:55:31
Eccentricity: 0.0043982
inclination: 82.9739°
perigee height: 936 km
apogee height: 1001 km
right ascension of ascending node: 306.6888°
argument of perigee: 112.4954°
revolutions per day: 13.78558732
mean anomaly at epoch: 316.0274°
orbit number at epoch: 67032

The dashed part of the orbit path shows where the satellite is in the earth's shadow,  

DLR